Date String (YYYY-MM-DD hh:mm:ss) UTC,Instrument flags,absolute air pressure of the measurement (hPa),sample flow rate (lpm),inlet stack bypass flow (lpm),air temperature of the measurement (°C),ambient temperature measured by the external sensor (°C),aerosol sample conditioner tube jacket temperature (°C),OPC LED temperature (°C),internal box temperature (°C),relative humidity of the measurement (%),span deviation,mass concentration of particles derived from Lorenz-Mie calculation of OPC scattering (μg/m³),mass concentration of particles derived from Lorenz-Mie calculation of OPC scattering (μg/m³),mass concentration of particles derived from Lorenz-Mie calculation of OPC scattering (μg/m³)
DateTimeUTC,F1_M11,P_M11,Q1_M11,Q2_M11,T1_M11,T2_M11,T3_M11,T4_M11,T5_M11,U1_M11,ZSPAN_M11,X0_M11,X2_M11,X1_M11
2024-05-27 07:00:00,SystemResetWarning,0830.0,5.00,000.00,030.5,029.6,000.0,038.9,032.1,011.3,0000.0,0007.21,0003.17,0002.41
2024-05-27 07:01:00,SystemResetWarning,0830.0,5.00,000.00,030.5,029.6,000.0,038.9,032.1,011.3,0000.0,0007.36,0003.19,0002.41
2024-05-27 07:02:00,SystemResetWarning,0830.0,5.00,000.00,030.5,029.6,000.0,038.9,032.1,011.3,0000.0,0007.36,0003.20,0002.42
2024-05-27 07:03:00,SystemResetWarning,0830.0,5.00,000.00,030.5,029.6,000.0,038.8,032.1,011.3,0000.0,0007.37,0003.20,0002.43
2024-05-27 07:04:00,SystemResetWarning,0830.0,5.00,000.00,030.5,029.6,000.0,038.8,032.1,011.4,0000.0,0007.42,0003.21,0002.43
2024-05-27 07:05:00,SystemResetWarning,0830.0,4.99,000.00,030.4,029.6,000.0,038.8,032.0,011.2,0000.0,0007.40,0003.23,0002.44
2024-05-27 07:06:00,SystemResetWarning,0830.0,4.99,000.00,030.4,029.6,000.0,038.8,032.0,011.2,0000.0,0007.31,0003.19,0002.43
2024-05-27 07:07:00,SystemResetWarning,0830.0,5.00,000.00,030.4,029.6,000.0,038.8,032.0,011.2,0000.0,0006.89,0003.15,0002.42
2024-05-27 07:08:00,SystemResetWarning,0830.0,5.01,000.00,030.4,029.5,000.0,038.8,032.0,011.4,0000.0,0006.35,0003.14,0002.43
2024-05-27 07:09:00,SystemResetWarning,0829.9,5.00,000.00,030.4,029.5,000.0,038.8,032.0,011.5,0000.0,0006.40,0003.16,0002.43
2024-05-27 07:10:00,SystemResetWarning,0829.9,4.99,000.00,030.4,029.5,000.0,038.8,032.0,011.4,0000.0,0007.05,0003.16,0002.42
2024-05-27 07:11:00,SystemResetWarning,0829.9,5.00,000.00,030.4,029.5,000.0,038.8,032.0,011.4,0000.0,0008.00,0003.17,0002.43
2024-05-27 07:12:00,SystemResetWarning,0829.9,4.99,000.00,030.4,029.5,000.0,038.8,032.0,011.4,0000.0,0008.36,0003.17,0002.43
2024-05-27 07:13:00,SystemResetWarning,0830.0,4.99,000.00,030.4,029.5,000.0,038.8,032.0,011.4,0000.0,0008.45,0003.15,0002.42
2024-05-27 07:14:00,SystemResetWarning,0830.0,5.00,000.00,030.4,029.5,000.0,038.8,032.0,011.4,0000.0,0008.41,0003.14,0002.41
2024-05-27 07:15:00,SystemResetWarning,0830.0,5.00,000.00,030.4,029.5,000.0,038.8,032.0,011.5,0000.0,0008.27,0003.09,0002.41
2024-05-27 07:16:00,SystemResetWarning,0830.0,5.01,000.00,030.4,029.5,000.0,038.8,032.0,011.4,0000.0,0008.19,0003.05,0002.42
2024-05-27 07:17:00,SystemResetWarning,0829.9,5.01,000.00,030.4,029.5,000.0,038.8,032.0,011.4,0000.0,0008.22,0003.06,0002.44
2024-05-27 07:18:00,SystemResetWarning,0829.9,5.00,000.00,030.3,029.5,000.0,038.8,032.0,011.5,0000.0,0008.26,0003.08,0002.47
2024-05-27 07:19:00,SystemResetWarning,0830.0,5.00,000.00,030.3,029.5,000.0,038.8,032.0,011.5,0000.0,0008.70,0003.13,0002.48
2024-05-27 07:20:00,SystemResetWarning,0830.0,4.99,000.00,030.3,029.4,000.0,038.7,031.9,011.5,0000.0,0008.82,0003.16,0002.49
2024-05-27 07:21:00,SystemResetWarning,0829.9,4.99,000.00,030.3,029.4,000.0,038.7,032.0,011.4,0000.0,0008.63,0003.21,0002.51
2024-05-27 07:22:00,SystemResetWarning,0830.0,5.00,000.00,030.3,029.4,000.0,038.7,031.9,011.4,0000.0,0007.68,0003.21,0002.50
2024-05-27 07:23:00,SystemResetWarning,0829.9,5.02,000.00,030.3,029.4,000.0,038.7,031.9,011.5,0000.0,0006.97,0003.21,0002.52
2024-05-27 07:24:00,SystemResetWarning,0829.9,4.99,000.00,030.3,029.4,000.0,038.7,031.9,011.4,0000.0,0006.64,0003.21,0002.53
2024-05-27 07:25:00,SystemResetWarning,0829.9,4.99,000.00,030.3,029.4,000.0,038.7,031.9,011.4,0000.0,0006.73,0003.22,0002.54
2024-05-27 07:26:00,SystemResetWarning,0829.9,5.01,000.00,030.3,029.4,000.0,038.7,031.9,011.4,0000.0,0007.02,0003.27,0002.54
2024-05-27 07:27:00,SystemResetWarning,0829.9,5.01,000.00,030.2,029.3,000.0,038.7,031.9,011.4,0000.0,0007.21,0003.29,0002.54
2024-05-27 07:28:00,SystemResetWarning,0830.0,4.98,000.00,030.2,029.3,000.0,038.7,031.9,011.3,0000.0,0007.25,0003.30,0002.53
2024-05-27 07:29:00,SystemResetWarning,0830.0,5.00,000.00,030.2,029.3,000.0,038.7,031.9,011.4,0000.0,0007.98,0003.29,0002.52
2024-05-27 07:30:00,SystemResetWarning,0830.0,5.01,000.00,030.2,029.3,000.0,038.7,031.9,011.4,0000.0,0007.63,0003.29,0002.53
2024-05-27 07:31:00,SystemResetWarning,0830.0,5.00,000.00,030.2,029.3,000.0,038.6,031.9,011.5,0000.0,0007.38,0003.24,0002.52
2024-05-27 07:32:00,SystemResetWarning,0830.0,5.00,000.00,030.2,029.3,000.0,038.6,031.9,011.5,0000.0,0007.35,0003.19,0002.53
2024-05-27 07:33:00,SystemResetWarning,0830.0,5.00,000.00,030.2,029.3,000.0,038.6,031.9,011.4,0000.0,0007.10,0003.16,0002.54
2024-05-27 07:34:00,SystemResetWarning,0830.0,5.00,000.00,030.2,029.3,000.0,038.6,031.8,011.4,0000.0,0007.14,0003.18,0002.55
2024-05-27 07:35:00,SystemResetWarning,0830.0,5.00,000.00,030.2,029.2,000.0,038.6,031.8,011.5,0000.0,0007.24,0003.20,0002.56
2024-05-27 07:36:00,SystemResetWarning,0830.0,5.00,000.00,030.2,029.2,000.0,038.6,031.8,011.6,0000.0,0007.52,0003.20,0002.56
2024-05-27 07:37:00,SystemResetWarning,0830.0,5.00,000.00,030.2,029.2,000.0,038.6,031.8,011.6,0000.0,0007.83,0003.19,0002.58
2024-05-27 07:38:00,SystemResetWarning,0830.0,5.00,000.00,030.2,029.2,000.0,038.6,031.8,011.5,0000.0,0007.75,0003.17,0002.59
2024-05-27 07:39:00,SystemResetWarning,0830.0,4.99,000.00,030.1,029.2,000.0,038.6,031.8,011.5,0000.0,0007.93,0003.21,0002.61
2024-05-27 07:40:00,SystemResetWarning,0830.0,5.00,000.00,030.1,029.2,000.0,038.6,031.8,011.5,0000.0,0007.38,0003.23,0002.61
2024-05-27 07:41:00,SystemResetWarning,0830.1,5.01,000.00,030.1,029.2,000.0,038.6,031.8,011.4,0000.0,0007.09,0003.22,0002.59
2024-05-27 07:42:00,SystemResetWarning,0830.0,5.01,000.00,030.1,029.2,000.0,038.5,031.7,011.4,0000.0,0006.56,0003.24,0002.59
2024-05-27 07:43:00,SystemResetWarning,0830.0,5.00,000.00,030.1,029.2,000.0,038.5,031.8,011.5,0000.0,0006.45,0003.25,0002.58
2024-05-27 07:44:00,SystemResetWarning,0830.0,4.98,000.00,030.1,029.2,000.0,038.5,031.7,011.5,0000.0,0006.59,0003.27,0002.60
2024-05-27 07:45:00,SystemResetWarning,0830.0,4.99,000.00,030.1,029.2,000.0,038.5,031.7,011.5,0000.0,0007.08,0003.26,0002.59
2024-05-27 07:46:00,SystemResetWarning,0830.0,5.02,000.00,030.1,029.2,000.0,038.5,031.7,011.5,0000.0,0007.22,0003.27,0002.59
2024-05-27 07:47:00,SystemResetWarning,0830.0,5.01,000.00,030.1,029.2,000.0,038.5,031.7,011.5,0000.0,0007.04,0003.29,0002.59
2024-05-27 07:48:00,SystemResetWarning,0830.0,5.00,000.00,030.1,029.2,000.0,038.5,031.7,011.5,0000.0,0006.22,0003.27,0002.59
2024-05-27 07:49:00,SystemResetWarning,0830.1,5.00,000.00,030.1,029.2,000.0,038.5,031.7,011.5,0000.0,0006.32,0003.29,0002.59
2024-05-27 07:50:00,SystemResetWarning,0830.0,5.00,000.00,030.1,029.2,000.0,038.5,031.7,011.5,0000.0,0006.04,0003.27,0002.58
2024-05-27 07:51:00,SystemResetWarning,0830.1,5.00,000.00,030.1,029.2,000.0,038.5,031.7,011.5,0000.0,0005.92,0003.27,0002.57
2024-05-27 07:52:00,SystemResetWarning,0830.1,5.00,000.00,030.1,029.1,000.0,038.5,031.7,011.6,0000.0,0006.03,0003.30,0002.58
2024-05-27 07:53:00,SystemResetWarning,0830.1,5.00,000.00,030.1,029.1,000.0,038.5,031.7,011.6,0000.0,0006.02,0003.30,0002.58
2024-05-27 07:54:00,SystemResetWarning,0830.1,5.00,000.00,030.0,029.1,000.0,038.4,031.7,011.6,0000.0,0006.17,0003.31,0002.59
2024-05-27 07:55:00,SystemResetWarning,0830.1,5.00,000.00,030.0,029.1,000.0,038.4,031.6,011.6,0000.0,0006.47,0003.34,0002.58
2024-05-27 07:56:00,SystemResetWarning,0830.1,5.00,000.00,030.0,029.1,000.0,038.4,031.7,011.6,0000.0,0005.94,0003.37,0002.58
2024-05-27 07:57:00,SystemResetWarning,0830.1,5.00,000.00,030.0,029.1,000.0,038.4,031.7,011.6,0000.0,0005.87,0003.36,0002.57
2024-05-27 07:58:00,SystemResetWarning,0830.1,5.01,000.00,030.0,029.1,000.0,038.4,031.6,011.6,0000.0,0005.86,0003.36,0002.58
2024-05-27 07:59:00,SystemResetWarning,0830.1,5.00,000.00,030.0,029.1,000.0,038.4,031.6,011.6,0000.0,0006.14,0003.36,0002.57
